2015-11-12 00:00:58 r, 19.88m,0000000001Hz,0000488749c,0000001.061s, 012.8C,00002191
2015-11-12 00:10:58 r, 19.89m,0000000000Hz,0000489623c,0000001.063s, 012.8C,00002191
2015-11-12 00:20:58 r, 20.03m,0000000001Hz,0000559568c,0000001.214s, 012.5C,00002191
2015-11-12 00:30:58 r, 20.20m,0000000000Hz,0000651658c,0000001.414s, 012.5C,00002191
2015-11-12 00:40:58 r, 20.06m,0000000000Hz,0000574822c,0000001.247s, 012.5C,00002191
2015-11-12 00:50:59 r, 20.10m,0000000001Hz,0000594311c,0000001.290s, 012.5C,00002191
2015-11-12 01:00:58 r, 20.01m,0000000000Hz,0000552073c,0000001.198s, 012.5C,00002191
2015-11-12 01:10:58 r, 19.94m,0000000001Hz,0000514425c,0000001.116s, 012.5C,00002191
2015-11-12 01:21:00 r, 19.94m,0000000001Hz,0000515617c,0000001.119s, 012.5C,00002191
2015-11-12 01:30:58 r, 19.93m,0000000000Hz,0000510555c,0000001.108s, 012.5C,00002191
2015-11-12 01:40:58 r, 20.00m,0000000001Hz,0000546011c,0000001.185s, 012.5C,00002191
2015-11-12 01:50:58 r, 20.17m,0000000001Hz,0000636509c,0000001.381s, 012.5C,00002191
2015-11-12 02:00:58 r, 20.18m,0000000001Hz,0000644323c,0000001.398s, 012.5C,00002191
2015-11-12 02:10:58 r, 20.03m,0000000001Hz,0000564418c,0000001.225s, 012.5C,00002191
2015-11-12 02:20:58 r, 20.03m,0000000001Hz,0000562406c,0000001.220s, 012.5C,00002191
2015-11-12 02:30:58 r, 20.02m,0000000001Hz,0000554893c,0000001.204s, 012.5C,00002191
2015-11-12 02:40:58 r, 20.09m,0000000000Hz,0000593045c,0000001.287s, 012.5C,00002191
2015-11-12 02:51:01 r, 19.98m,0000000001Hz,0000535573c,0000001.162s, 012.5C,00002191
2015-11-12 03:00:58 r, 19.96m,0000000001Hz,0000526122c,0000001.142s, 012.5C,00002191
2015-11-12 03:10:58 r, 19.98m,0000000001Hz,0000532849c,0000001.156s, 012.5C,00002191
2015-11-12 03:20:59 r, 19.99m,0000000001Hz,0000538494c,0000001.169s, 012.2C,00002191
2015-11-12 03:30:58 r, 19.99m,0000000001Hz,0000540154c,0000001.172s, 012.2C,00002191
2015-11-12 03:40:58 r, 19.88m,0000000001Hz,0000486807c,0000001.056s, 012.2C,00002191
2015-11-12 03:50:58 r, 19.91m,0000000001Hz,0000503195c,0000001.092s, 011.9C,00002191
2015-11-12 04:00:58 r, 19.99m,0000000001Hz,0000538032c,0000001.168s, 011.9C,00002191
2015-11-12 04:10:58 r, 19.99m,0000000000Hz,0000537757c,0000001.167s, 011.9C,00002191
2015-11-12 04:20:58 r, 19.95m,0000000001Hz,0000520416c,0000001.129s, 011.9C,00002191
2015-11-12 04:30:59 r, 19.94m,0000000001Hz,0000512787c,0000001.113s, 011.9C,00002191
2015-11-12 04:40:58 r, 19.92m,0000000001Hz,0000507875c,0000001.102s, 011.9C,00002191
2015-11-12 04:50:58 r, 19.87m,0000000001Hz,0000481913c,0000001.046s, 011.9C,00002191
2015-11-12 05:00:58 r, 19.92m,0000000001Hz,0000504774c,0000001.095s, 011.9C,00002191
2015-11-12 05:10:58 r, 19.95m,0000000001Hz,0000518633c,0000001.126s, 011.9C,00002191
2015-11-12 05:20:58 r, 19.86m,0000000001Hz,0000479051c,0000001.040s, 011.9C,00002191
2015-11-12 05:30:58 r, 20.01m,0000000001Hz,0000552117c,0000001.198s, 011.9C,00002191
2015-11-12 05:40:59 r, 19.79m,0000000001Hz,0000449379c,0000000.975s, 011.9C,00002191
2015-11-12 05:50:58 r, 19.96m,0000000001Hz,0000525153c,0000001.140s, 011.9C,00002191
2015-11-12 06:00:58 r, 19.97m,0000000001Hz,0000529053c,0000001.148s, 011.9C,00002191
2015-11-12 06:10:58 r, 19.80m,0000000001Hz,0000453064c,0000000.983s, 011.9C,00002191
2015-11-12 06:20:58 r, 19.38m,0000000001Hz,0000309028c,0000000.671s, 011.9C,00002191
2015-11-12 06:30:58 r, 18.64m,0000000003Hz,0000156439c,0000000.339s, 011.9C,00002191
2015-11-12 06:40:58 r, 17.49m,0000000008Hz,0000054711c,0000000.119s, 011.9C,00002191
2015-11-12 06:50:58 r, 15.56m,0000000050Hz,0000009190c,0000000.020s, 011.9C,00002191
2015-11-12 07:00:58 r, 13.81m,0000000252Hz,0000000000c,0000000.000s, 011.6C,00002191
2015-11-12 07:10:58 r, 12.03m,0000001311Hz,0000000000c,0000000.000s, 011.6C,00002191
2015-11-12 07:20:58 r, 09.94m,0000008976Hz,0000000000c,0000000.000s, 011.6C,00002191
2015-11-12 07:30:58 r, 08.59m,0000030877Hz,0000000000c,0000000.000s, 011.6C,00002191
2015-11-12 07:40:58 r, 07.58m,0000079166Hz,0000000000c,0000000.000s, 011.9C,00002191
2015-11-12 07:50:59 r, 06.96m,0000139302Hz,0000000000c,0000000.000s, 011.6C,00002191
2015-11-12 08:00:58 r, 06.34m,0000245034Hz,0000000000c,0000000.000s, 011.9C,00002191
2015-11-12 08:10:58 r, 05.96m,0000351121Hz,0000000000c,0000000.000s, 011.9C,00002191
2015-11-12 08:20:59 r, 00.00m,0000461315Hz,0000000000c,0000000.000s, 012.2C,00002191
2015-11-12 08:30:58 r, 00.00m,0000597156Hz,0000000000c,0000000.000s, 012.5C,00002191
2015-11-12 08:40:58 r, 00.00m,0000597087Hz,0000000000c,0000000.000s, 012.8C,00002191
2015-11-12 08:50:58 r, 00.00m,0000597084Hz,0000000000c,0000000.000s, 012.8C,00002191
2015-11-12 09:00:58 r, 00.00m,0000597086Hz,0000000000c,0000000.000s, 013.2C,00002191
2015-11-12 09:10:58 r, 00.00m,0000597032Hz,0000000000c,0000000.000s, 013.5C,00002191
2015-11-12 09:20:58 r, 00.00m,0000596973Hz,0000000000c,0000000.000s, 013.8C,00002191
2015-11-12 09:30:58 r, 00.00m,0000597033Hz,0000000000c,0000000.000s, 014.1C,00002191
2015-11-12 09:40:58 r, 00.00m,0000597050Hz,0000000000c,0000000.000s, 013.8C,00002191
2015-11-12 09:50:58 r, 00.00m,0000597038Hz,0000000000c,0000000.000s, 013.8C,00002191
2015-11-12 10:00:58 r, 00.00m,0000597045Hz,0000000000c,0000000.000s, 013.8C,00002191
2015-11-12 10:10:58 r, 00.00m,0000596954Hz,0000000000c,0000000.000s, 013.8C,00002191
2015-11-12 10:20:58 r, 00.00m,0000596932Hz,0000000000c,0000000.000s, 013.8C,00002191
2015-11-12 10:30:58 r, 00.00m,0000596979Hz,0000000000c,0000000.000s, 014.1C,00002191
2015-11-12 10:40:58 r, 00.00m,0000596928Hz,0000000000c,0000000.000s, 014.1C,00002191
2015-11-12 10:51:00 r, 00.00m,0000596899Hz,0000000000c,0000000.000s, 014.1C,00002191
2015-11-12 11:00:58 r, 00.00m,0000596881Hz,0000000000c,0000000.000s, 014.5C,00002191
2015-11-12 11:10:58 r, 00.00m,0000596924Hz,0000000000c,0000000.000s, 014.8C,00002191
2015-11-12 11:20:58 r, 00.00m,0000596893Hz,0000000000c,0000000.000s, 014.5C,00002191
2015-11-12 11:30:58 r, 00.00m,0000596821Hz,0000000000c,0000000.000s, 014.5C,00002191
2015-11-12 11:40:58 r, 00.00m,0000596943Hz,0000000000c,0000000.000s, 014.5C,00002191
2015-11-12 11:50:58 r, 00.00m,0000596926Hz,0000000000c,0000000.000s, 014.5C,00002191
2015-11-12 12:00:58 r, 00.00m,0000596968Hz,0000000000c,0000000.000s, 014.8C,00002191
2015-11-12 12:10:58 r, 00.00m,0000596929Hz,0000000000c,0000000.000s, 014.5C,00002191
2015-11-12 12:20:59 r, 00.00m,0000596908Hz,0000000000c,0000000.000s, 014.8C,00002191
2015-11-12 12:30:58 r, 00.00m,0000596827Hz,0000000000c,0000000.000s, 014.8C,00002191
2015-11-12 12:40:58 r, 00.00m,0000596732Hz,0000000000c,0000000.000s, 015.7C,00002191
2015-11-12 12:50:58 r, 00.00m,0000596717Hz,0000000000c,0000000.000s, 015.7C,00002191
2015-11-12 13:00:58 r, 00.00m,0000596827Hz,0000000000c,0000000.000s, 016.1C,00002191
2015-11-12 13:10:58 r, 00.00m,0000596772Hz,0000000000c,0000000.000s, 016.1C,00002191
2015-11-12 13:20:58 r, 00.00m,0000596760Hz,0000000000c,0000000.000s, 016.7C,00002191
2015-11-12 13:30:58 r, 00.00m,0000596771Hz,0000000000c,0000000.000s, 016.7C,00002191
2015-11-12 13:40:58 r, 00.00m,0000596658Hz,0000000000c,0000000.000s, 016.7C,00002191
2015-11-12 13:50:58 r, 00.00m,0000596764Hz,0000000000c,0000000.000s, 016.7C,00002191
2015-11-12 14:00:59 r, 00.00m,0000596778Hz,0000000000c,0000000.000s, 016.7C,00002191
2015-11-12 14:10:58 r, 00.00m,0000596748Hz,0000000000c,0000000.000s, 016.7C,00002191
2015-11-12 14:20:58 r, 00.00m,0000596806Hz,0000000000c,0000000.000s, 016.4C,00002191
2015-11-12 14:30:59 r, 00.00m,0000596819Hz,0000000000c,0000000.000s, 016.4C,00002191
2015-11-12 14:40:58 r, 00.00m,0000596764Hz,0000000000c,0000000.000s, 016.4C,00002191
2015-11-12 14:50:58 r, 00.00m,0000596812Hz,0000000000c,0000000.000s, 016.1C,00002191
2015-11-12 15:00:59 r, 00.00m,0000596869Hz,0000000000c,0000000.000s, 015.7C,00002191
2015-11-12 15:10:58 r, 00.00m,0000596919Hz,0000000000c,0000000.000s, 015.4C,00002191
2015-11-12 15:20:58 r, 00.00m,0000596886Hz,0000000000c,0000000.000s, 015.1C,00002191
2015-11-12 15:30:59 r, 00.00m,0000597027Hz,0000000000c,0000000.000s, 014.8C,00002191
2015-11-12 15:40:58 r, 00.00m,0000596973Hz,0000000000c,0000000.000s, 014.5C,00002191
2015-11-12 15:50:58 r, 00.00m,0000441739Hz,0000000000c,0000000.000s, 014.5C,00002191
2015-11-12 16:00:59 r, 05.97m,0000347501Hz,0000000000c,0000000.000s, 014.1C,00002191
2015-11-12 16:10:58 r, 06.06m,0000317708Hz,0000000000c,0000000.000s, 014.1C,00002191
2015-11-12 16:20:58 r, 06.91m,0000146104Hz,0000000000c,0000000.000s, 013.8C,00002191
2015-11-12 16:30:58 r, 06.93m,0000143458Hz,0000000000c,0000000.000s, 013.8C,00002191
2015-11-12 16:40:58 r, 07.31m,0000101042Hz,0000000000c,0000000.000s, 013.8C,00002191
2015-11-12 16:50:58 r, 08.32m,0000039771Hz,0000000000c,0000000.000s, 013.8C,00002191
2015-11-12 17:00:58 r, 09.43m,0000014314Hz,0000000000c,0000000.000s, 013.8C,00002191
2015-11-12 17:10:58 r, 11.02m,0000003317Hz,0000000000c,0000000.000s, 013.8C,00002191
2015-11-12 17:20:58 r, 13.25m,0000000425Hz,0000000000c,0000000.000s, 013.8C,00002191
2015-11-12 17:30:58 r, 14.85m,0000000097Hz,0000004787c,0000000.010s, 013.8C,00002191
2015-11-12 17:40:58 r, 16.48m,0000000022Hz,0000021418c,0000000.046s, 013.8C,00002191
2015-11-12 17:50:58 r, 18.18m,0000000005Hz,0000102517c,0000000.222s, 013.8C,00002191
2015-11-12 18:00:59 r, 19.12m,0000000002Hz,0000240837c,0000000.523s, 013.8C,00002191
2015-11-12 18:10:58 r, 19.57m,0000000001Hz,0000364669c,0000000.791s, 013.8C,00002191
2015-11-12 18:20:58 r, 19.80m,0000000001Hz,0000451322c,0000000.979s, 013.8C,00002191
2015-11-12 18:30:58 r, 19.68m,0000000001Hz,0000405040c,0000000.879s, 013.8C,00002191
2015-11-12 18:40:58 r, 19.78m,0000000001Hz,0000444539c,0000000.965s, 013.8C,00002191
2015-11-12 18:50:58 r, 19.83m,0000000001Hz,0000463707c,0000001.006s, 013.8C,00002191
2015-11-12 19:00:58 r, 19.81m,0000000001Hz,0000456814c,0000000.991s, 013.8C,00002191
2015-11-12 19:10:58 r, 19.73m,0000000001Hz,0000425289c,0000000.923s, 013.8C,00002191
2015-11-12 19:20:58 r, 19.87m,0000000001Hz,0000482917c,0000001.048s, 013.8C,00002191
2015-11-12 19:30:58 r, 19.90m,0000000000Hz,0000495184c,0000001.075s, 013.8C,00002191
2015-11-12 19:40:58 r, 19.76m,0000000001Hz,0000435804c,0000000.946s, 013.8C,00002191
2015-11-12 19:50:58 r, 19.95m,0000000001Hz,0000516298c,0000001.120s, 013.8C,00002191
2015-11-12 20:00:58 r, 20.37m,0000000000Hz,0000759049c,0000001.647s, 013.8C,00002191
2015-11-12 20:10:58 r, 20.46m,0000000001Hz,0000822111c,0000001.784s, 013.5C,00002191
2015-11-12 20:20:58 r, 20.47m,0000000001Hz,0000827487c,0000001.796s, 013.2C,00002191
2015-11-12 20:30:58 r, 20.76m,0000000000Hz,0001084465c,0000002.353s, 012.8C,00002191
2015-11-12 20:40:58 r, 20.34m,0000000001Hz,0000740105c,0000001.606s, 012.5C,00002191
2015-11-12 20:50:58 r, 20.06m,0000000001Hz,0000576956c,0000001.252s, 012.8C,00002191
2015-11-12 21:00:58 r, 20.41m,0000000001Hz,0000784825c,0000001.703s, 012.8C,00002191
2015-11-12 21:10:58 r, 20.37m,0000000001Hz,0000757559c,0000001.644s, 013.2C,00002191
2015-11-12 21:20:58 r, 20.33m,0000000001Hz,0000730654c,0000001.586s, 013.2C,00002191
2015-11-12 21:30:58 r, 20.28m,0000000000Hz,0000700672c,0000001.521s, 013.2C,00002191
2015-11-12 21:40:58 r, 20.03m,0000000001Hz,0000560574c,0000001.217s, 013.5C,00002191
2015-11-12 21:50:58 r, 20.18m,0000000000Hz,0000644838c,0000001.399s, 013.5C,00002191
2015-11-12 22:01:00 r, 20.06m,0000000001Hz,0000574952c,0000001.248s, 013.8C,00002191
2015-11-12 22:10:58 r, 20.08m,0000000001Hz,0000589283c,0000001.279s, 013.8C,00002191
2015-11-12 22:20:58 r, 19.92m,0000000001Hz,0000506738c,0000001.100s, 013.8C,00002191
2015-11-12 22:30:59 r, 20.02m,0000000001Hz,0000556479c,0000001.208s, 014.1C,00002191
2015-11-12 22:40:58 r, 20.18m,0000000001Hz,0000640413c,0000001.390s, 014.1C,00002191
2015-11-12 22:50:58 r, 20.02m,0000000001Hz,0000556690c,0000001.208s, 014.1C,00002191
2015-11-12 23:00:59 r, 20.02m,0000000001Hz,0000554098c,0000001.202s, 014.1C,00002191
2015-11-12 23:10:58 r, 20.55m,0000000001Hz,0000900465c,0000001.954s, 014.1C,00002191
2015-11-12 23:20:58 r, 19.90m,0000000001Hz,0000494351c,0000001.073s, 013.8C,00002191
2015-11-12 23:30:58 r, 20.02m,0000000001Hz,0000554175c,0000001.203s, 013.8C,00002191
2015-11-12 23:40:58 r, 20.72m,0000000001Hz,0001047380c,0000002.273s, 013.8C,00002191
2015-11-12 23:50:58 r, 20.51m,0000000000Hz,0000864966c,0000001.877s, 013.5C,00002191
